TimePDT,TemperatureF,Dew PointF,Humidity,Sea Level PressureIn,VisibilityMPH,Wind Direction,Wind SpeedMPH,Gust SpeedMPH,PrecipitationIn,Events,Conditions,WindDirDegrees,DateUTC
12:15 AM,50.0,37.4,62,30.00,10.0,Calm,Calm,-,N/A,,Clear,0,2014-05-04 07:15:00
12:35 AM,48.2,39.2,71,30.00,10.0,Calm,Calm,-,N/A,,Clear,0,2014-05-04 07:35:00
12:55 AM,46.4,39.2,76,30.00,10.0,Calm,Calm,-,N/A,,Clear,0,2014-05-04 07:55:00
1:15 AM,46.4,39.2,76,30.00,10.0,NE,4.6,-,N/A,,Clear,50,2014-05-04 08:15:00
1:35 AM,46.4,39.2,76,30.00,10.0,NE,4.6,-,N/A,,Clear,40,2014-05-04 08:35:00
1:55 AM,46.4,39.2,76,30.00,10.0,NE,4.6,-,N/A,,Clear,40,2014-05-04 08:55:00
2:35 AM,44.6,39.2,81,29.99,10.0,NE,4.6,-,N/A,,Partly Cloudy,40,2014-05-04 09:35:00
2:55 AM,46.4,39.2,76,29.99,10.0,Calm,Calm,-,N/A,,Mostly Cloudy,0,2014-05-04 09:55:00
3:15 AM,44.6,37.4,76,29.99,10.0,Calm,Calm,-,N/A,,Partly Cloudy,0,2014-05-04 10:15:00
3:35 AM,44.6,39.2,81,29.99,10.0,Calm,Calm,-,N/A,,Clear,0,2014-05-04 10:35:00
3:55 AM,44.6,39.2,81,29.99,10.0,Calm,Calm,-,N/A,,Scattered Clouds,0,2014-05-04 10:55:00
4:15 AM,42.8,39.2,87,29.99,10.0,Calm,Calm,-,N/A,,Mostly Cloudy,0,2014-05-04 11:15:00
4:35 AM,42.8,39.2,87,29.99,10.0,Calm,Calm,-,N/A,,Mostly Cloudy,0,2014-05-04 11:35:00
4:55 AM,41.0,39.2,93,29.99,10.0,Calm,Calm,-,N/A,,Mostly Cloudy,0,2014-05-04 11:55:00
5:15 AM,41.0,39.2,93,29.99,10.0,Calm,Calm,-,N/A,,Mostly Cloudy,0,2014-05-04 12:15:00
5:35 AM,41.0,39.2,93,30.00,10.0,NE,3.5,-,N/A,,Partly Cloudy,50,2014-05-04 12:35:00
5:55 AM,41.0,39.2,93,30.00,10.0,Calm,Calm,-,N/A,,Clear,0,2014-05-04 12:55:00
6:15 AM,41.0,39.2,93,30.00,10.0,Calm,Calm,-,N/A,,Clear,0,2014-05-04 13:15:00
6:35 AM,44.6,41.0,87,30.01,10.0,Calm,Calm,-,N/A,,Clear,0,2014-05-04 13:35:00
6:55 AM,46.4,41.0,81,30.01,10.0,Calm,Calm,-,N/A,,Clear,0,2014-05-04 13:55:00
7:15 AM,48.2,41.0,76,30.01,10.0,Calm,Calm,-,N/A,,Clear,0,2014-05-04 14:15:00
7:35 AM,50.0,42.8,76,30.01,10.0,Calm,Calm,-,N/A,,Clear,0,2014-05-04 14:35:00
7:55 AM,51.8,41.0,67,30.02,10.0,Calm,Calm,-,N/A,,Clear,0,2014-05-04 14:55:00
8:15 AM,53.6,42.8,67,30.02,10.0,Calm,Calm,-,N/A,,Clear,0,2014-05-04 15:15:00
8:35 AM,53.6,42.8,67,30.02,10.0,Calm,Calm,-,N/A,,Clear,0,2014-05-04 15:35:00
8:55 AM,55.4,44.6,67,30.02,10.0,Calm,Calm,-,N/A,,Clear,0,2014-05-04 15:55:00
9:15 AM,57.2,44.6,63,30.03,10.0,South,3.5,-,N/A,,Clear,180,2014-05-04 16:15:00
9:55 AM,59.0,44.6,59,30.03,10.0,SSE,3.5,-,N/A,,Clear,160,2014-05-04 16:55:00
10:15 AM,59.0,44.6,59,30.03,10.0,South,4.6,-,N/A,,Clear,170,2014-05-04 17:15:00
10:35 AM,59.0,42.8,55,30.03,10.0,SSE,3.5,-,N/A,,Clear,150,2014-05-04 17:35:00
10:55 AM,62.6,44.6,52,30.04,10.0,South,3.5,-,N/A,,Clear,170,2014-05-04 17:55:00
11:15 AM,64.4,46.4,52,30.04,10.0,SSW,4.6,-,N/A,,Clear,200,2014-05-04 18:15:00
11:35 AM,64.4,44.6,49,30.04,10.0,South,4.6,-,N/A,,Clear,170,2014-05-04 18:35:00
11:55 AM,64.4,44.6,49,30.04,10.0,SSW,6.9,-,N/A,,Clear,200,2014-05-04 18:55:00
12:15 PM,66.2,46.4,49,30.04,10.0,SW,5.8,-,N/A,,Clear,230,2014-05-04 19:15:00
12:35 PM,66.2,44.6,46,30.03,10.0,SSW,4.6,-,N/A,,Clear,200,2014-05-04 19:35:00
12:55 PM,68.0,42.8,40,30.03,10.0,SE,4.6,-,N/A,,Clear,140,2014-05-04 19:55:00
1:15 PM,68.0,41.0,37,30.03,10.0,SSW,5.8,-,N/A,,Clear,210,2014-05-04 20:15:00
1:35 PM,68.0,42.8,40,30.03,10.0,South,4.6,-,N/A,,Clear,190,2014-05-04 20:35:00
1:55 PM,68.0,39.2,35,30.02,10.0,SSW,5.8,-,N/A,,Clear,210,2014-05-04 20:55:00
2:15 PM,69.8,39.2,33,30.02,10.0,SSW,5.8,-,N/A,,Clear,200,2014-05-04 21:15:00
2:35 PM,68.0,39.2,35,30.01,10.0,Calm,Calm,-,N/A,,Clear,0,2014-05-04 21:35:00
2:55 PM,68.0,41.0,37,30.01,10.0,SE,5.8,-,N/A,,Clear,140,2014-05-04 21:55:00
3:15 PM,71.6,42.8,35,30.00,10.0,SSW,4.6,-,N/A,,Clear,210,2014-05-04 22:15:00
3:35 PM,69.8,41.0,35,30.00,10.0,SW,6.9,-,N/A,,Clear,220,2014-05-04 22:35:00
3:55 PM,68.0,39.2,35,29.99,10.0,WSW,3.5,-,N/A,,Clear,250,2014-05-04 22:55:00
4:15 PM,68.0,41.0,37,29.99,10.0,SW,5.8,-,N/A,,Clear,220,2014-05-04 23:15:00
4:35 PM,69.8,44.6,40,29.99,10.0,WSW,6.9,-,N/A,,Clear,240,2014-05-04 23:35:00
4:55 PM,68.0,42.8,40,29.99,10.0,WSW,4.6,-,N/A,,Clear,240,2014-05-04 23:55:00
5:15 PM,68.0,44.6,43,29.98,10.0,WSW,8.1,-,N/A,,Clear,250,2014-05-05 00:15:00
5:35 PM,68.0,42.8,40,29.98,10.0,WSW,6.9,-,N/A,,Clear,240,2014-05-05 00:35:00
5:55 PM,66.2,44.6,46,29.98,10.0,WSW,6.9,-,N/A,,Clear,240,2014-05-05 00:55:00
6:15 PM,66.2,44.6,46,29.98,10.0,WSW,6.9,-,N/A,,Clear,240,2014-05-05 01:15:00
6:35 PM,64.4,44.6,49,29.98,10.0,West,5.8,-,N/A,,Clear,260,2014-05-05 01:35:00
6:55 PM,62.6,44.6,52,29.98,10.0,West,6.9,-,N/A,,Clear,260,2014-05-05 01:55:00
7:15 PM,60.8,44.6,55,29.98,10.0,West,4.6,-,N/A,,Clear,270,2014-05-05 02:15:00
7:55 PM,57.2,44.6,63,29.99,10.0,WNW,3.5,-,N/A,,Clear,290,2014-05-05 02:55:00
8:15 PM,57.2,44.6,63,29.99,10.0,West,5.8,-,N/A,,Clear,260,2014-05-05 03:15:00
8:35 PM,57.2,46.4,67,30.00,10.0,West,8.1,-,N/A,,Clear,270,2014-05-05 03:35:00
8:55 PM,55.4,46.4,72,30.01,10.0,West,6.9,-,N/A,,Clear,280,2014-05-05 03:55:00
9:15 PM,55.4,46.4,72,30.01,10.0,West,4.6,-,N/A,,Clear,280,2014-05-05 04:15:00
9:55 PM,53.6,46.4,77,30.02,10.0,West,5.8,-,N/A,,Clear,270,2014-05-05 04:55:00
10:15 PM,53.6,46.4,77,30.03,10.0,West,4.6,-,N/A,,Clear,280,2014-05-05 05:15:00
10:35 PM,51.8,46.4,82,30.03,10.0,Calm,Calm,-,N/A,,Clear,0,2014-05-05 05:35:00
10:55 PM,50.0,46.4,87,30.03,10.0,Calm,Calm,-,N/A,,Clear,0,2014-05-05 05:55:00
11:15 PM,50.0,46.4,87,30.03,10.0,Calm,Calm,-,N/A,,Clear,0,2014-05-05 06:15:00
11:35 PM,50.0,44.6,82,30.03,10.0,Calm,Calm,-,N/A,,Clear,0,2014-05-05 06:35:00
11:55 PM,48.2,46.4,93,30.03,10.0,Calm,Calm,-,N/A,,Clear,0,2014-05-05 06:55:00